Regional Weather Roundup
Issued by NWS Upton, NY

Current Version | Previous Version | Text Only | Print | Product List | Glossary On
Versions: 1 2 3 4 5 6 7 8 9 10 11 12 13 14 15 16 17 18 19 20 21 22 23 24 25 26 27 28 29 30 31 32 33 34 35 36 37 38 39 40 41 42 43 44 45 46 47 48 49 50
644 ASUS41 KOKX 041004 RWROKX REGIONAL WEATHER ROUNDUP NATIONAL WEATHER SERVICE NEW YORK NY 600 AM EDT WED MAY 04 2016 NOTE: "FAIR" INDICATES FEW OR NO CLOUDS BELOW 12,000 FEET WITH NO SIGNIFICANT WEATHER AND/OR OBSTRUCTIONS TO VISIBILITY. NYZ071-072-176-178-NJZ106-104-041100- NEW YORK CITY METRO AREA CITY SKY/WX TMP DP RH WIND PRES REMARKS CENTRAL PARK CLOUDY 50 44 80 NE9 29.82S LAGUARDIA APRT CLOUDY 51 48 89 NE9 29.80S KENNEDY INTL CLOUDY 50 45 83 NE7 29.82R NEWARK/LIBERTY LGT RAIN 51 47 84 NE6 29.80S BRNX BOT. GARD N/A 48 45 87 NE3 29.82R TETERBORO CLOUDY 50 45 83 NE3 29.79F $$ NYZ177-179-078>081-041100- LONG ISLAND NEW YORK CITY SKY/WX TMP DP RH WIND PRES REMARKS FARMINGDALE CLOUDY 49 46 90 N6 29.81R ISLIP NOT AVBL SHIRLEY CLOUDY 48 45 89 VRB3 29.81R RIVERHEAD N/A 48 45 87 E3 29.81S WESTHAMPTON CLOUDY 44 44 100 NE7 29.82S EAST HAMPTON CLOUDY 47 43 87 NE6 29.81S MONTAUK POINT N/A 47 44 90 NE7 29.84R $$ NYZ052-065-067-041100- HUDSON VALLEY CITY SKY/WX TMP DP RH WIND PRES REMARKS WHITE PLAINS CLOUDY 48 46 93 CALM 29.80S NEWBURGH LGT RAIN 48 48 100 SE7 29.81R FOG MONTGOMERY LGT RAIN 50 49 96 CALM 29.79S POUGHKEEPSIE LGT RAIN 51 47 86 SE7 29.81R ALBANY CLOUDY 49 47 93 SE3 29.80S $$ NJZ001-105-106-008-010-013-015-019>022-104-041100- NEW JERSEY CITY SKY/WX TMP DP RH WIND PRES REMARKS NEWARK/LIBERTY LGT RAIN 51 47 84 NE6 29.80S TETERBORO CLOUDY 50 45 83 NE3 29.79F CALDWELL LGT RAIN 50 47 89 E5 29.81R MORRISTOWN RAIN 48 48 100 CALM 29.81R SOMERVILLE LGT RAIN 50 48 93 CALM 29.79R SUSSEX CLOUDY 50 49 96 CALM 29.80R ANDOVER N/A 50 48 93 CALM 29.79S TRENTON LGT RAIN 49 47 93 NE7 29.79S MILLVILLE CLOUDY 49 48 97 NE12 29.75F ATLANTIC CITY CLOUDY 49 48 97 NE10 29.76F FOG WRIGHTSTOWN CLOUDY 48 48 98 NE8 29.76R TOMS RIVER CLOUDY 48 45 87 NE8 29.80R BELMAR LGT RAIN 47 47 100 NE12 29.79F FOG $$ PAZ047>061-062-071-041100- EASTERN PENNSYLVANIA CITY SKY/WX TMP DP RH WIND PRES REMARKS PHILADELPHIA CLOUDY 51 47 86 NE8 29.77F ALLENTOWN LGT RAIN 51 48 89 E3 29.77F SCRANTON LGT RAIN 51 49 92 CALM 29.75R FOG $$ CTZ002-004>006-009-010-012-RIZ004-006-007-MAZ004-011-015-041100- SOUTHERN NEW ENGLAND IN CT CITY SKY/WX TMP DP RH WIND PRES REMARKS BRADLEY INTL CLOUDY 48 44 86 N5 29.83R HARTFORD CLOUDY 51 42 71 N5 29.84R DANBURY CLOUDY 48 43 82 E6 29.83R WTRBRY/OXFORD N/A 46 41 81 E3 29.83R BRIDGEPORT CLOUDY 50 44 80 NE6 29.82R MERIDEN CLOUDY 50 43 77 CALM 29.83S NEW HAVEN CLOUDY 48 43 82 NE5 29.82S CHESTER PTSUNNY 46 43 87 NE3 29.83R GROTON CLOUDY 48 46 93 E7 29.83R WILLIMANTIC CLOUDY 49 41 74 NE6 29.84R IN RI CITY SKY/WX TMP DP RH WIND PRES REMARKS PROVIDENCE CLOUDY 46 42 86 NE9 29.85S BLOCK ISLAND CLOUDY 46 44 93 NE10 29.84R WESTERLY CLOUDY 47 42 83 CALM 29.84R IN MA CITY SKY/WX TMP DP RH WIND PRES REMARKS BOSTON MOCLDY 46 42 86 E9 29.87S WORCESTER CLOUDY 42 40 92 NE7 29.84R WESTFIELD CLOUDY 47 44 90 N5 29.84R PROVINCETOWN CLOUDY 45 43 93 E7 29.87S NANTUCKET CLOUDY 45 43 93 NE15 29.82F $$ ANZ330-335-338-340-345-350-353-355-041100- COASTAL MARINE OBSERVATIONS STATION/POSITION TIME SKY/WX TEMP WIND PRES VSBY WAVE AIR SEA DIR/SP/G HT/PER (UTC) (F) (DEG/KT/KT) (MB) (MI) (FT/S) NY HARB ENTRANCE 0850 49 50 50/ 12/ 14 1008.3 4/ 6 20S FIRE ISLAND 0850 48 49 60/ 16/ 19 1007.7 4/ 6 GREAT SOUTH BAY 0900 49 55 40/ 8/ 12 N/A 23 SSW MONTAUK P 0950 47 47 60/ 12/ 16 1008.9 4/ 8 15 E BARNEGAT LI 0922 50 N/A 5/ 6 HUDSON CANYON 0850 49 49 1006.9 5/ 6 KINGS POINT 0900 49 54 1009.0 EXECUTION ROCKS NOT AVBL CENTRAL LI SOUND 0915 49 70/ 8/ 10 N/A 1 EASTERN LI SOUND 0900 48 48 60/ 8/ 10 N/A ROBBINS REEF 0906 50 70/ 6/ 7 1008.7 $$ >>>>>>>>>>>>>>>>>>>>>>>>>>>> KEY <<<<<<<<<<<<<<<<<<<<<<<<<<< > < > SKY/WX - SKY CONDITION/PRESENT WEATHER < > TMP - TEMPERATURE IN FAHRENHEIT < > DP - DEWPOINT IN FAHRENHEIT < > RH - RELATIVE HUMIDITY IN PERCENT < > WIND - DIRECTION AND SPEED IN MPH < > PRES - MEAN SEA LEVEL PRESSURE IN INCHES OF HG < > WCI - WIND CHILL INDEX < > VSB - VISIBILITY IN MILES < > HX - HEAT INDEX < > TC - TEMPERATURE IN CELSIUS < > VRB - VARIABLE WIND DIRECTION < > < >>>>>>>>>>>>>>>>>>>>>>>>>>>> KEY <<<<<<<<<<<<<<<<<<<<<<<<<<<

USA.gov is the U.S. government's official web portal to all federal, state and local government web resources and services.